Check out our new BloomSky Weather System.

Active alerts


No alerts


Thunder radar  blitzortung!


Rain radar more information rain snow radar


Visit our other weather sites:

Template documentation
and downloads

And another site



Weather Underground History page Text

Daily Summary for June 16, 2017 Units:  English    Metric   Both
« Previous Day
Next Day »
Daily Weekly Monthly Yearly Custom
  High: Low: Average:
Temperature: 96.4 °F 75.9 °F 85.5 °F
Dew Point: 78.1 °F 73.4 °F 75.3 °F
Humidity: 95 % 48 % 74 %
Wind Speed: 12.0 mph 0.0 mph 4.1 mph
Wind Gust: 17.0 mph - -
Wind:- - South
Pressure: 29.93 in 29.76 in -
Precipitation: 0.00 in    
Historical Graphs
 
 
Tabular Data for June 16, 2017
Time Temperature Dew Point Pressure Wind Wind Speed Wind Gust Humidity Rainfall Rate (Hourly)
00:02 80.2 °F 75.0 °F 29.92 in South 2.0 mph 4.0 mph 84 % 0.00 in
00:07 80.1 °F 74.8 °F 29.92 in SSE 2.0 mph 6.0 mph 84 % 0.00 in
00:12 80.1 °F 75.2 °F 29.92 in SSE 4.0 mph 6.0 mph 85 % 0.00 in
00:17 79.9 °F 75.0 °F 29.92 in South 2.0 mph 6.0 mph 85 % 0.00 in
00:22 79.9 °F 75.0 °F 29.92 in SSW 1.0 mph 8.0 mph 85 % 0.00 in
00:27 79.9 °F 75.4 °F 29.93 in SSE 1.0 mph 8.0 mph 86 % 0.00 in
00:32 79.7 °F 75.2 °F 29.92 in SSE 4.0 mph 8.0 mph 86 % 0.00 in
00:37 79.7 °F 75.2 °F 29.92 in South 2.0 mph 5.0 mph 86 % 0.00 in
00:39 79.7 °F 75.2 °F 29.92 in South 2.0 mph 5.0 mph 86 % 0.00 in
00:44 79.5 °F 75.4 °F 29.93 in SSE 3.0 mph 5.0 mph 87 % 0.00 in
00:49 79.5 °F 75.4 °F 29.92 in SE 4.0 mph 6.0 mph 87 % 0.00 in
00:54 79.5 °F 75.4 °F 29.92 in SSE 3.0 mph 6.0 mph 87 % 0.00 in
00:59 79.5 °F 75.4 °F 29.92 in SSW 2.0 mph 6.0 mph 87 % 0.00 in
01:04 79.3 °F 75.6 °F 29.92 in South 2.0 mph 5.0 mph 88 % 0.00 in
01:09 79.2 °F 75.4 °F 29.92 in South 2.0 mph 5.0 mph 88 % 0.00 in
01:14 79.2 °F 75.4 °F 29.93 in Calm   4.0 mph 88 % 0.00 in
01:19 79.0 °F 75.4 °F 29.93 in Calm   3.0 mph 89 % 0.00 in
01:24 79.0 °F 75.4 °F 29.93 in Calm   4.0 mph 89 % 0.00 in
01:29 79.0 °F 75.4 °F 29.93 in SE 1.0 mph 4.0 mph 89 % 0.00 in
01:34 79.0 °F 75.4 °F 29.92 in SE 1.0 mph 4.0 mph 89 % 0.00 in
01:39 78.8 °F 75.2 °F 29.91 in SSE 2.0 mph 4.0 mph 89 % 0.00 in
01:44 78.8 °F 75.2 °F 29.91 in South 2.0 mph 4.0 mph 89 % 0.00 in
01:49 78.8 °F 75.2 °F 29.92 in SE 1.0 mph 4.0 mph 89 % 0.00 in
01:54 78.6 °F 75.0 °F 29.92 in SSE 2.0 mph 4.0 mph 89 % 0.00 in
01:59 78.6 °F 75.0 °F 29.91 in SSE 1.0 mph 4.0 mph 89 % 0.00 in
02:04 78.6 °F 75.0 °F 29.91 in Calm   4.0 mph 89 % 0.00 in
02:10 78.4 °F 75.2 °F 29.91 in SE 1.0 mph 4.0 mph 90 % 0.00 in
02:15 78.4 °F 75.2 °F 29.91 in Calm   4.0 mph 90 % 0.00 in
02:20 78.4 °F 75.2 °F 29.91 in South 2.0 mph 3.0 mph 90 % 0.00 in
02:25 78.4 °F 75.2 °F 29.91 in SE 1.0 mph 3.0 mph 90 % 0.00 in
02:30 78.4 °F 75.2 °F 29.91 in SSE 1.0 mph 3.0 mph 90 % 0.00 in
02:35 78.3 °F 75.0 °F 29.90 in SSW 2.0 mph 3.0 mph 90 % 0.00 in
02:40 78.1 °F 74.8 °F 29.90 in South 1.0 mph 3.0 mph 90 % 0.00 in
02:45 78.1 °F 74.8 °F 29.89 in SSW 1.0 mph 3.0 mph 90 % 0.00 in
02:50 77.9 °F 75.0 °F 29.89 in SSW 1.0 mph 3.0 mph 91 % 0.00 in
02:55 77.7 °F 74.8 °F 29.90 in South 2.0 mph 3.0 mph 91 % 0.00 in
03:00 77.7 °F 74.8 °F 29.90 in Calm   3.0 mph 91 % 0.00 in
03:05 77.7 °F 74.8 °F 29.90 in SSE 1.0 mph 3.0 mph 91 % 0.00 in
03:10 77.5 °F 74.7 °F 29.90 in Calm   2.0 mph 91 % 0.00 in
03:15 77.5 °F 75.0 °F 29.91 in SSW 1.0 mph 2.0 mph 92 % 0.00 in
03:20 77.4 °F 74.8 °F 29.91 in SSW 1.0 mph 2.0 mph 92 % 0.00 in
03:25 77.4 °F 74.8 °F 29.91 in Calm   2.0 mph 92 % 0.00 in
03:30 77.0 °F 74.5 °F 29.91 in Calm   1.0 mph 92 % 0.00 in
03:35 76.6 °F 74.1 °F 29.91 in Calm   1.0 mph 92 % 0.00 in
03:41 76.8 °F 74.3 °F 29.91 in Calm   1.0 mph 92 % 0.00 in
03:46 76.8 °F 74.7 °F 29.90 in South 2.0 mph 2.0 mph 93 % 0.00 in
03:51 76.8 °F 74.7 °F 29.90 in Calm   2.0 mph 93 % 0.00 in
03:56 76.8 °F 74.7 °F 29.90 in Calm   2.0 mph 93 % 0.00 in
04:01 76.8 °F 74.7 °F 29.90 in Calm   2.0 mph 93 % 0.00 in
04:06 76.8 °F 74.7 °F 29.90 in Calm   2.0 mph 93 % 0.00 in
04:11 76.8 °F 74.7 °F 29.90 in Calm   1.0 mph 93 % 0.00 in
04:16 76.6 °F 74.5 °F 29.90 in Calm   2.0 mph 93 % 0.00 in
04:21 76.6 °F 74.5 °F 29.90 in Calm   2.0 mph 93 % 0.00 in
04:26 76.5 °F 74.3 °F 29.90 in Calm   2.0 mph 93 % 0.00 in
04:32 76.3 °F 74.1 °F 29.91 in Calm   1.0 mph 93 % 0.00 in
04:37 76.3 °F 74.1 °F 29.90 in Calm   1.0 mph 93 % 0.00 in
04:42 76.3 °F 74.5 °F 29.90 in SSW 1.0 mph 1.0 mph 94 % 0.00 in
04:46 76.3 °F 74.5 °F 29.90 in Calm   1.0 mph 94 % 0.00 in
04:52 76.1 °F 74.3 °F 29.91 in Calm   1.0 mph 94 % 0.00 in
04:57 75.9 °F 74.1 °F 29.90 in Calm   1.0 mph 94 % 0.00 in
05:02 76.1 °F 74.3 °F 29.89 in SSE 2.0 mph 2.0 mph 94 % 0.00 in
05:07 76.3 °F 74.5 °F 29.88 in SE 2.0 mph 3.0 mph 94 % 0.00 in
05:12 76.3 °F 74.7 °F 29.87 in SSE 2.0 mph 4.0 mph 95 % 0.00 in
05:17 76.3 °F 74.5 °F 29.87 in ESE 1.0 mph 4.0 mph 94 % 0.00 in
05:22 76.5 °F 74.7 °F 29.87 in Calm   4.0 mph 94 % 0.00 in
05:27 76.3 °F 74.5 °F 29.87 in ESE 2.0 mph 5.0 mph 94 % 0.00 in
05:32 76.5 °F 74.7 °F 29.87 in SE 2.0 mph 7.0 mph 94 % 0.00 in
05:37 76.5 °F 74.7 °F 29.87 in SE 1.0 mph 7.0 mph 94 % 0.00 in
05:42 76.5 °F 74.7 °F 29.87 in ESE 5.0 mph 7.0 mph 94 % 0.00 in
05:47 76.5 °F 74.7 °F 29.87 in SSE 4.0 mph 6.0 mph 94 % 0.00 in
05:52 76.5 °F 74.7 °F 29.87 in South 4.0 mph 6.0 mph 94 % 0.00 in
05:57 76.3 °F 74.5 °F 29.87 in SSE 5.0 mph 6.0 mph 94 % 0.00 in
06:02 76.3 °F 74.5 °F 29.87 in SSE 2.0 mph 6.0 mph 94 % 0.00 in
06:07 76.3 °F 74.7 °F 29.87 in South 3.0 mph 6.0 mph 95 % 0.00 in
06:12 76.3 °F 74.7 °F 29.86 in SE 5.0 mph 5.0 mph 95 % 0.00 in
06:17 76.3 °F 74.7 °F 29.86 in SE 3.0 mph 6.0 mph 95 % 0.00 in
06:22 76.3 °F 74.7 °F 29.86 in SSE 2.0 mph 8.0 mph 95 % 0.00 in
06:27 76.5 °F 74.8 °F 29.86 in South 3.0 mph 8.0 mph 95 % 0.00 in
06:32 76.5 °F 74.8 °F 29.87 in SSW 4.0 mph 8.0 mph 95 % 0.00 in
06:37 76.5 °F 74.8 °F 29.88 in SSE 2.0 mph 7.0 mph 95 % 0.00 in
06:42 76.6 °F 75.0 °F 29.88 in SSW 3.0 mph 8.0 mph 95 % 0.00 in
06:46 76.6 °F 75.0 °F 29.88 in SSE 3.0 mph 8.0 mph 95 % 0.00 in
06:51 76.8 °F 75.2 °F 29.87 in SSE 3.0 mph 8.0 mph 95 % 0.00 in
06:52 76.8 °F 75.2 °F 29.87 in SSE 4.0 mph 8.0 mph 95 % 0.00 in
06:57 77.0 °F 75.4 °F 29.87 in SSW 2.0 mph 8.0 mph 95 % 0.00 in
07:02 77.2 °F 75.6 °F 29.87 in SE 3.0 mph 8.0 mph 95 % 0.00 in
07:07 77.4 °F 75.6 °F 29.86 in SSE 5.0 mph 9.0 mph 94 % 0.00 in
07:12 77.4 °F 75.6 °F 29.86 in SSE 5.0 mph 9.0 mph 94 % 0.00 in
07:17 77.5 °F 75.7 °F 29.87 in SSE 5.0 mph 9.0 mph 94 % 0.00 in
07:22 77.9 °F 76.1 °F 29.87 in SE 5.0 mph 8.0 mph 94 % 0.00 in
07:27 78.1 °F 75.9 °F 29.87 in SSW 3.0 mph 10.0 mph 93 % 0.00 in
07:32 78.1 °F 75.9 °F 29.88 in SW 2.0 mph 10.0 mph 93 % 0.00 in
07:38 78.3 °F 75.7 °F 29.88 in SSW 3.0 mph 10.0 mph 92 % 0.00 in
07:43 78.4 °F 75.9 °F 29.88 in SSW 4.0 mph 6.0 mph 92 % 0.00 in
07:48 78.6 °F 76.1 °F 29.88 in South 6.0 mph 6.0 mph 92 % 0.00 in
07:53 79.0 °F 76.5 °F 29.88 in SW 3.0 mph 8.0 mph 92 % 0.00 in
07:58 79.3 °F 76.5 °F 29.88 in South 4.0 mph 8.0 mph 91 % 0.00 in
08:03 79.9 °F 76.6 °F 29.88 in SE 6.0 mph 8.0 mph 90 % 0.00 in
08:08 80.4 °F 76.8 °F 29.88 in South 4.0 mph 8.0 mph 89 % 0.00 in
08:13 81.0 °F 77.0 °F 29.88 in SSE 6.0 mph 9.0 mph 88 % 0.00 in
08:18 81.3 °F 77.4 °F 29.88 in South 2.0 mph 11.0 mph 88 % 0.00 in
08:23 82.0 °F 77.7 °F 29.88 in SSE 4.0 mph 11.0 mph 87 % 0.00 in
08:28 82.4 °F 77.7 °F 29.89 in SW 4.0 mph 11.0 mph 86 % 0.00 in
08:32 82.6 °F 77.2 °F 29.90 in South 7.0 mph 10.0 mph 84 % 0.00 in
08:37 82.8 °F 77.4 °F 29.91 in SSW 3.0 mph 12.0 mph 84 % 0.00 in
08:42 83.3 °F 77.9 °F 29.91 in SSW 6.0 mph 12.0 mph 84 % 0.00 in
08:47 83.7 °F 77.5 °F 29.91 in WNW 2.0 mph 12.0 mph 82 % 0.00 in
08:52 83.8 °F 77.4 °F 29.91 in SW 3.0 mph 9.0 mph 81 % 0.00 in
08:57 84.0 °F 77.2 °F 29.91 in SSW 7.0 mph 10.0 mph 80 % 0.00 in
09:02 83.8 °F 77.0 °F 29.90 in SSW 5.0 mph 12.0 mph 80 % 0.00 in
09:07 83.8 °F 77.0 °F 29.89 in SSE 11.0 mph 12.0 mph 80 % 0.00 in
09:12 84.0 °F 76.8 °F 29.88 in South 4.0 mph 14.0 mph 79 % 0.00 in
09:17 84.4 °F 77.2 °F 29.89 in SE 6.0 mph 14.0 mph 79 % 0.00 in
09:22 84.7 °F 77.5 °F 29.89 in SSW 6.0 mph 14.0 mph 79 % 0.00 in
09:27 85.3 °F 77.7 °F 29.90 in SE 7.0 mph 14.0 mph 78 % 0.00 in
09:32 85.8 °F 78.1 °F 29.90 in SSW 2.0 mph 14.0 mph 78 % 0.00 in
09:37 86.5 °F 78.1 °F 29.90 in North 2.0 mph 12.0 mph 76 % 0.00 in
09:42 86.4 °F 77.0 °F 29.91 in West 2.0 mph 10.0 mph 74 % 0.00 in
09:47 86.2 °F 76.5 °F 29.91 in SSW 8.0 mph 10.0 mph 73 % 0.00 in
09:52 86.4 °F 77.0 °F 29.92 in South 4.0 mph 12.0 mph 74 % 0.00 in
09:57 87.1 °F 77.0 °F 29.92 in SSE 12.0 mph 12.0 mph 72 % 0.00 in
10:02 86.9 °F 76.8 °F 29.92 in South 5.0 mph 12.0 mph 72 % 0.00 in
10:07 87.6 °F 77.5 °F 29.92 in SSE 3.0 mph 12.0 mph 72 % 0.00 in
10:12 87.4 °F 75.9 °F 29.92 in SSW 7.0 mph 12.0 mph 69 % 0.00 in
10:17 86.5 °F 75.6 °F 29.91 in SSW 11.0 mph 11.0 mph 70 % 0.00 in
10:22 86.5 °F 75.9 °F 29.90 in SSE 10.0 mph 11.0 mph 71 % 0.00 in
10:27 86.9 °F 76.8 °F 29.89 in SSW 7.0 mph 12.0 mph 72 % 0.00 in
10:33 87.1 °F 75.7 °F 29.89 in SW 3.0 mph 14.0 mph 69 % 0.00 in
10:38 87.3 °F 75.9 °F 29.89 in South 4.0 mph 14.0 mph 69 % 0.00 in
10:43 87.6 °F 75.7 °F 29.89 in SE 4.0 mph 16.0 mph 68 % 0.00 in
10:48 88.3 °F 77.4 °F 29.90 in WSW 4.0 mph 16.0 mph 70 % 0.00 in
10:53 89.1 °F 76.6 °F 29.89 in South 4.0 mph 16.0 mph 67 % 0.00 in
10:58 89.1 °F 76.3 °F 29.89 in SSE 11.0 mph 13.0 mph 66 % 0.00 in
11:03 89.6 °F 77.2 °F 29.89 in SE 3.0 mph 12.0 mph 67 % 0.00 in
11:08 90.5 °F 76.6 °F 29.90 in SSE 10.0 mph 12.0 mph 64 % 0.00 in
11:13 90.3 °F 75.6 °F 29.89 in SW 4.0 mph 11.0 mph 62 % 0.00 in
11:18 90.0 °F 75.2 °F 29.89 in SW 7.0 mph 10.0 mph 62 % 0.00 in
11:23 90.0 °F 75.7 °F 29.89 in South 6.0 mph 11.0 mph 63 % 0.00 in
11:28 90.1 °F 75.9 °F 29.89 in SSE 5.0 mph 11.0 mph 63 % 0.00 in
11:33 90.7 °F 76.3 °F 29.89 in South 3.0 mph 11.0 mph 63 % 0.00 in
11:38 90.7 °F 76.3 °F 29.89 in SSE 3.0 mph 11.0 mph 63 % 0.00 in
11:43 90.9 °F 76.5 °F 29.89 in SE 8.0 mph 14.0 mph 63 % 0.00 in
11:48 91.0 °F 75.7 °F 29.89 in SSW 4.0 mph 14.0 mph 61 % 0.00 in
11:53 90.9 °F 76.1 °F 29.89 in South 6.0 mph 14.0 mph 62 % 0.00 in
11:58 90.9 °F 75.6 °F 29.88 in SSW 4.0 mph 13.0 mph 61 % 0.00 in
12:03 91.2 °F 76.8 °F 29.88 in SSW 7.0 mph 13.0 mph 63 % 0.00 in
12:08 91.4 °F 75.6 °F 29.88 in NW 3.0 mph 13.0 mph 60 % 0.00 in
12:13 91.2 °F 76.3 °F 29.88 in South 3.0 mph 11.0 mph 62 % 0.00 in
12:18 91.8 °F 76.8 °F 29.88 in SE 7.0 mph 11.0 mph 62 % 0.00 in
12:23 91.9 °F 76.1 °F 29.88 in Calm   14.0 mph 60 % 0.00 in
12:28 92.5 °F 75.6 °F 29.88 in WSW 5.0 mph 14.0 mph 58 % 0.00 in
12:33 92.5 °F 76.1 °F 29.88 in SW 5.0 mph 14.0 mph 59 % 0.00 in
12:38 92.5 °F 74.5 °F 29.88 in SSW 8.0 mph 13.0 mph 56 % 0.00 in
12:43 92.5 °F 75.0 °F 29.87 in SE 6.0 mph 13.0 mph 57 % 0.00 in
12:48 92.5 °F 76.1 °F 29.87 in South 9.0 mph 12.0 mph 59 % 0.00 in
12:53 92.3 °F 75.9 °F 29.87 in ESE 5.0 mph 11.0 mph 59 % 0.00 in
12:58 92.8 °F 75.9 °F 29.87 in SSE 3.0 mph 11.0 mph 58 % 0.00 in
13:03 92.8 °F 76.5 °F 29.86 in SSW 4.0 mph 10.0 mph 59 % 0.00 in
13:08 92.3 °F 76.8 °F 29.86 in South 3.0 mph 12.0 mph 61 % 0.00 in
13:13 92.7 °F 76.3 °F 29.86 in South 5.0 mph 12.0 mph 59 % 0.00 in
13:18 92.1 °F 75.7 °F 29.86 in South 10.0 mph 12.0 mph 59 % 0.00 in
13:23 91.9 °F 77.0 °F 29.86 in SW 3.0 mph 10.0 mph 62 % 0.00 in
13:28 92.1 °F 75.7 °F 29.86 in SSW 1.0 mph 10.0 mph 59 % 0.00 in
13:33 92.7 °F 75.7 °F 29.86 in SW 6.0 mph 11.0 mph 58 % 0.00 in
13:39 93.0 °F 74.5 °F 29.86 in South 6.0 mph 11.0 mph 55 % 0.00 in
13:43 93.6 °F 73.8 °F 29.86 in SSE 7.0 mph 11.0 mph 53 % 0.00 in
13:49 93.7 °F 74.7 °F 29.86 in SE 6.0 mph 16.0 mph 54 % 0.00 in
13:54 93.7 °F 74.7 °F 29.86 in SSE 6.0 mph 16.0 mph 54 % 0.00 in
13:59 93.9 °F 74.7 °F 29.86 in South 6.0 mph 16.0 mph 54 % 0.00 in
14:04 93.9 °F 74.1 °F 29.85 in SSE 7.0 mph 12.0 mph 53 % 0.00 in
14:09 93.7 °F 75.7 °F 29.85 in SE 3.0 mph 12.0 mph 56 % 0.00 in
14:14 94.6 °F 75.4 °F 29.85 in SSE 7.0 mph 12.0 mph 54 % 0.00 in
14:19 95.0 °F 74.7 °F 29.85 in SSW 7.0 mph 9.0 mph 52 % 0.00 in
14:24 94.6 °F 74.8 °F 29.84 in ENE 1.0 mph 11.0 mph 53 % 0.00 in
14:29 95.0 °F 75.2 °F 29.85 in SW 5.0 mph 11.0 mph 53 % 0.00 in
14:34 94.5 °F 74.7 °F 29.84 in SW 6.0 mph 11.0 mph 53 % 0.00 in
14:39 94.6 °F 76.5 °F 29.84 in SW 8.0 mph 9.0 mph 56 % 0.00 in
14:44 94.6 °F 74.8 °F 29.84 in SE 5.0 mph 11.0 mph 53 % 0.00 in
14:49 94.6 °F 74.3 °F 29.83 in South 3.0 mph 11.0 mph 52 % 0.00 in
14:54 94.6 °F 74.8 °F 29.83 in SE 4.0 mph 11.0 mph 53 % 0.00 in
14:59 94.6 °F 75.9 °F 29.83 in SW 2.0 mph 11.0 mph 55 % 0.00 in
15:04 94.8 °F 73.9 °F 29.83 in SSW 6.0 mph 11.0 mph 51 % 0.00 in
15:06 95.0 °F 74.7 °F 29.83 in SW 6.0 mph 11.0 mph 52 % 0.00 in
15:11 95.2 °F 73.6 °F 29.83 in South 5.0 mph 11.0 mph 50 % 0.00 in
15:16 94.6 °F 73.8 °F 29.83 in East 5.0 mph 11.0 mph 51 % 0.00 in
15:21 95.2 °F 74.1 °F 29.83 in SSE 3.0 mph 11.0 mph 51 % 0.00 in
15:26 95.9 °F 76.6 °F 29.83 in West 1.0 mph 10.0 mph 54 % 0.00 in
15:31 96.4 °F 74.8 °F 29.83 in SSE 1.0 mph 8.0 mph 50 % 0.00 in
15:36 96.4 °F 73.6 °F 29.83 in SW 2.0 mph 7.0 mph 48 % 0.00 in
15:41 96.3 °F 73.9 °F 29.82 in East 5.0 mph 12.0 mph 49 % 0.00 in
15:46 96.1 °F 74.5 °F 29.82 in SE 4.0 mph 12.0 mph 50 % 0.00 in
15:51 95.4 °F 75.0 °F 29.82 in SSW 3.0 mph 12.0 mph 52 % 0.00 in
15:56 95.4 °F 73.8 °F 29.82 in SSW 8.0 mph 9.0 mph 50 % 0.00 in
16:01 95.0 °F 74.7 °F 29.82 in SSW 4.0 mph 10.0 mph 52 % 0.00 in
16:06 95.2 °F 74.8 °F 29.82 in WSW 3.0 mph 10.0 mph 52 % 0.00 in
16:11 95.2 °F 74.8 °F 29.82 in SSE 5.0 mph 10.0 mph 52 % 0.00 in
16:16 94.8 °F 73.9 °F 29.81 in SSE 4.0 mph 10.0 mph 51 % 0.00 in
16:21 94.3 °F 74.5 °F 29.82 in SE 1.0 mph 10.0 mph 53 % 0.00 in
16:26 93.7 °F 74.7 °F 29.81 in SSW 4.0 mph 10.0 mph 54 % 0.00 in
16:31 93.4 °F 74.3 °F 29.81 in SSE 5.0 mph 8.0 mph 54 % 0.00 in
16:36 93.7 °F 75.7 °F 29.81 in South 3.0 mph 8.0 mph 56 % 0.00 in
16:41 94.8 °F 75.6 °F 29.81 in South 1.0 mph 11.0 mph 54 % 0.00 in
16:46 94.6 °F 74.8 °F 29.81 in SSW 4.0 mph 12.0 mph 53 % 0.00 in
16:51 94.1 °F 74.8 °F 29.81 in South 7.0 mph 12.0 mph 54 % 0.00 in
16:56 93.7 °F 74.7 °F 29.80 in SSE 5.0 mph 12.0 mph 54 % 0.00 in
17:01 93.9 °F 74.7 °F 29.80 in South 4.0 mph 8.0 mph 54 % 0.00 in
17:06 94.8 °F 75.0 °F 29.80 in South 4.0 mph 8.0 mph 53 % 0.00 in
17:11 95.2 °F 74.8 °F 29.80 in SSE 5.0 mph 10.0 mph 52 % 0.00 in
17:16 94.6 °F 74.8 °F 29.80 in SE 3.0 mph 10.0 mph 53 % 0.00 in
17:21 94.5 °F 74.1 °F 29.80 in SSE 6.0 mph 10.0 mph 52 % 0.00 in
17:26 94.8 °F 74.5 °F 29.79 in ESE 4.0 mph 10.0 mph 52 % 0.00 in
17:31 95.4 °F 75.6 °F 29.79 in SSE 5.0 mph 10.0 mph 53 % 0.00 in
17:36 95.5 °F 73.9 °F 29.79 in SE 6.0 mph 10.0 mph 50 % 0.00 in
17:41 95.4 °F 73.8 °F 29.79 in SSE 7.0 mph 10.0 mph 50 % 0.00 in
17:46 95.2 °F 74.1 °F 29.78 in SW 3.0 mph 11.0 mph 51 % 0.00 in
17:47 95.2 °F 74.1 °F 29.78 in South 6.0 mph 11.0 mph 51 % 0.00 in
17:52 95.0 °F 73.4 °F 29.78 in SSE 5.0 mph 11.0 mph 50 % 0.00 in
17:57 95.0 °F 73.4 °F 29.78 in ESE 8.0 mph 11.0 mph 50 % 0.00 in
18:02 94.6 °F 74.3 °F 29.78 in SSW 5.0 mph 9.0 mph 52 % 0.00 in
18:07 93.9 °F 74.1 °F 29.78 in SSE 7.0 mph 9.0 mph 53 % 0.00 in
18:12 93.6 °F 74.5 °F 29.78 in SSW 3.0 mph 10.0 mph 54 % 0.00 in
18:17 93.4 °F 74.3 °F 29.78 in SSE 10.0 mph 10.0 mph 54 % 0.00 in
18:22 92.8 °F 73.8 °F 29.77 in SW 7.0 mph 11.0 mph 54 % 0.00 in
18:27 92.8 °F 74.3 °F 29.77 in SSE 5.0 mph 11.0 mph 55 % 0.00 in
18:32 92.5 °F 74.5 °F 29.77 in SSE 7.0 mph 11.0 mph 56 % 0.00 in
18:37 92.5 °F 74.5 °F 29.77 in SSW 7.0 mph 10.0 mph 56 % 0.00 in
18:42 92.1 °F 75.2 °F 29.76 in SSW 2.0 mph 10.0 mph 58 % 0.00 in
18:47 91.9 °F 75.0 °F 29.76 in SSE 3.0 mph 10.0 mph 58 % 0.00 in
18:52 92.3 °F 75.4 °F 29.76 in SE 5.0 mph 12.0 mph 58 % 0.00 in
18:57 92.5 °F 75.6 °F 29.76 in South 7.0 mph 12.0 mph 58 % 0.00 in
19:02 92.1 °F 75.2 °F 29.77 in SSW 3.0 mph 12.0 mph 58 % 0.00 in
19:07 91.9 °F 75.6 °F 29.76 in SSW 5.0 mph 11.0 mph 59 % 0.00 in
19:12 91.6 °F 75.2 °F 29.76 in SW 7.0 mph 12.0 mph 59 % 0.00 in
19:17 91.6 °F 75.2 °F 29.77 in SW 8.0 mph 12.0 mph 59 % 0.00 in
19:22 91.4 °F 75.0 °F 29.77 in ESE 5.0 mph 12.0 mph 59 % 0.00 in
19:27 91.0 °F 75.2 °F 29.77 in SW 8.0 mph 12.0 mph 60 % 0.00 in
19:32 90.7 °F 75.4 °F 29.77 in SSW 4.0 mph 12.0 mph 61 % 0.00 in
19:37 90.5 °F 75.2 °F 29.77 in South 4.0 mph 11.0 mph 61 % 0.00 in
19:42 90.1 °F 75.4 °F 29.77 in SSE 10.0 mph 11.0 mph 62 % 0.00 in
19:47 89.8 °F 75.0 °F 29.77 in South 5.0 mph 11.0 mph 62 % 0.00 in
19:52 89.4 °F 75.2 °F 29.77 in WSW 8.0 mph 11.0 mph 63 % 0.00 in
19:57 89.2 °F 75.0 °F 29.77 in South 4.0 mph 11.0 mph 63 % 0.00 in
20:02 88.9 °F 75.2 °F 29.77 in SSE 4.0 mph 10.0 mph 64 % 0.00 in
20:07 88.7 °F 75.4 °F 29.77 in SSE 9.0 mph 10.0 mph 65 % 0.00 in
20:12 88.5 °F 75.7 °F 29.77 in SSE 4.0 mph 10.0 mph 66 % 0.00 in
20:17 88.2 °F 75.7 °F 29.77 in SSE 4.0 mph 11.0 mph 67 % 0.00 in
20:22 88.0 °F 76.1 °F 29.77 in South 5.0 mph 11.0 mph 68 % 0.00 in
20:27 87.6 °F 75.7 °F 29.77 in South 5.0 mph 12.0 mph 68 % 0.00 in
20:32 87.3 °F 75.9 °F 29.77 in ESE 9.0 mph 13.0 mph 69 % 0.00 in
20:37 87.1 °F 75.7 °F 29.77 in South 5.0 mph 14.0 mph 69 % 0.00 in
20:38 87.1 °F 75.7 °F 29.77 in SSW 6.0 mph 14.0 mph 69 % 0.00 in
20:43 86.7 °F 75.7 °F 29.77 in SSE 6.0 mph 14.0 mph 70 % 0.00 in
20:48 86.4 °F 75.9 °F 29.77 in South 5.0 mph 14.0 mph 71 % 0.00 in
20:53 86.2 °F 75.7 °F 29.77 in SSW 7.0 mph 12.0 mph 71 % 0.00 in
20:58 86.0 °F 75.9 °F 29.77 in SSE 5.0 mph 12.0 mph 72 % 0.00 in
21:03 85.8 °F 75.7 °F 29.77 in SSE 4.0 mph 11.0 mph 72 % 0.00 in
21:08 85.5 °F 75.7 °F 29.77 in South 6.0 mph 11.0 mph 73 % 0.00 in
21:13 85.3 °F 75.6 °F 29.77 in South 10.0 mph 11.0 mph 73 % 0.00 in
21:18 84.9 °F 75.2 °F 29.77 in SSE 6.0 mph 12.0 mph 73 % 0.00 in
21:23 84.7 °F 75.2 °F 29.77 in SSW 8.0 mph 12.0 mph 73 % 0.00 in
21:28 84.7 °F 75.2 °F 29.78 in SE 5.0 mph 12.0 mph 73 % 0.00 in
21:33 84.6 °F 75.0 °F 29.77 in SW 5.0 mph 13.0 mph 73 % 0.00 in
21:38 84.4 °F 74.8 °F 29.77 in SSE 6.0 mph 14.0 mph 73 % 0.00 in
21:43 84.4 °F 75.2 °F 29.77 in SE 5.0 mph 14.0 mph 74 % 0.00 in
21:48 84.2 °F 75.4 °F 29.77 in SSW 5.0 mph 17.0 mph 75 % 0.00 in
21:53 84.0 °F 75.6 °F 29.78 in South 7.0 mph 17.0 mph 76 % 0.00 in
21:58 83.8 °F 75.4 °F 29.78 in SSE 7.0 mph 17.0 mph 76 % 0.00 in
22:03 83.7 °F 75.7 °F 29.78 in SSE 7.0 mph 15.0 mph 77 % 0.00 in
22:09 83.7 °F 75.7 °F 29.78 in SSE 8.0 mph 15.0 mph 77 % 0.00 in
22:14 83.5 °F 75.9 °F 29.78 in SSE 4.0 mph 12.0 mph 78 % 0.00 in
22:19 83.3 °F 75.7 °F 29.78 in SSW 8.0 mph 14.0 mph 78 % 0.00 in
22:24 83.1 °F 75.9 °F 29.78 in South 10.0 mph 17.0 mph 79 % 0.00 in
22:29 82.9 °F 75.7 °F 29.79 in SSW 3.0 mph 17.0 mph 79 % 0.00 in
22:34 82.9 °F 75.7 °F 29.79 in South 5.0 mph 17.0 mph 79 % 0.00 in
22:39 82.6 °F 75.7 °F 29.79 in SE 8.0 mph 16.0 mph 80 % 0.00 in
22:44 82.6 °F 75.4 °F 29.79 in South 5.0 mph 15.0 mph 79 % 0.00 in
22:49 82.4 °F 75.2 °F 29.79 in SSW 2.0 mph 14.0 mph 79 % 0.00 in
22:54 82.2 °F 75.0 °F 29.79 in South 5.0 mph 14.0 mph 79 % 0.00 in
22:59 82.0 °F 74.5 °F 29.79 in South 5.0 mph 14.0 mph 78 % 0.00 in
23:04 82.0 °F 74.5 °F 29.79 in SW 3.0 mph 13.0 mph 78 % 0.00 in
23:09 82.0 °F 74.5 °F 29.79 in SSE 5.0 mph 12.0 mph 78 % 0.00 in
23:14 81.9 °F 74.7 °F 29.79 in SSE 6.0 mph 12.0 mph 79 % 0.00 in
23:19 81.9 °F 74.7 °F 29.80 in SSW 6.0 mph 12.0 mph 79 % 0.00 in
23:24 81.7 °F 74.5 °F 29.79 in South 6.0 mph 9.0 mph 79 % 0.00 in
23:29 81.7 °F 74.8 °F 29.79 in SSW 8.0 mph 10.0 mph 80 % 0.00 in
23:34 81.3 °F 74.5 °F 29.80 in SSW 4.0 mph 13.0 mph 80 % 0.00 in
23:39 81.3 °F 74.8 °F 29.80 in SSW 7.0 mph 13.0 mph 81 % 0.00 in
23:44 81.3 °F 74.8 °F 29.80 in SSE 4.0 mph 13.0 mph 81 % 0.00 in
23:49 81.3 °F 75.4 °F 29.80 in SSW 3.0 mph 10.0 mph 82 % 0.00 in
23:54 81.0 °F 75.0 °F 29.80 in South 3.0 mph 10.0 mph 82 % 0.00 in
23:59 80.8 °F 75.2 °F 29.80 in SE 3.0 mph 9.0 mph 83 % 0.00 in
Spring, Texas: Villages of Bridgestone
Compliments of Weather Underground - 2.75 mb

Script developed by  Jim McMurry - jmcmurry@mwt.net Adapted for the template by  Wim van der Kuil - Leuven-Template.eu

You find our weather info also at:

UK Metoffice

WeatherCloud

Weather Underground

Mid-South Weather Network

AWEKAS

Citizen Weather Observer Program (CWOP)

HAMweather, WeatherForYou, PWS Weather

Equipment we use:

Weather-station
Davis Vantage Vue

Weather-program
Meteohub

Weather-server
Debian 7.9 x86 (Guest)

Provider
DreamHost

Davis Vantage Vue

Meteohub

Debian 7.9 x86 (Guest)

DreamHost